Vertical_Velocity
-1 -1 -0 -2 -1 -3 -3 -2 -3 -2 -0 -1 -2 -0 -6 -3 -1 -4 -2 -9 -6 -7 -1 -1 -2 3 -2 5 1 8 -2 -15 -7 -0 -11 8 5 12 19 2 6 3 4 1 6
-1 -1 -0 1 -0 -1 -4 -2 -3 -2 1 0 -3 0 -4 -5 -4 -0 -4 1 -5 -2 -6 -1 3 -2 -7 -3 -5 2 1 -5 2 1 -1 -5 9 5 4 9 3 2 -10 -5 -5
-0 0 2 0 -1 2 -2 -0 -2 -3 -1 1 -2 -1 -1 -6 -5 -1 -1 -0 -5 -4 -3 -4 -1 -5 -1 4 1 0 -16 -1 -5 -8 6 -5 -8 7 6 -1 16 8 15 4 -2
0 -0 -0 1 -1 1 -2 1 -3 -4 -1 0 -4 1 -2 -4 -7 0 -4 0 -1 -3 -6 -3 -4 -3 -3 -1 0 -3 -2 -1 -4 1 -5 -11 -2 -15 -3 -7 0 1 1 14 9
1 0 1 -2 4 -2 1 -3 -1 -1 -3 3 -4 -1 -4 -7 11 -4 -3 0 -3 -1 1 -1 -4 -4 -4 -2 -1 0 3 -0 -2 -4 2 2 -8 -17 -4 4 -4 -9 -5 3 7
-4 5 0 4 -3 3 -0 -3 -1 -1 -2 -3 -0 0 -1 -19 -1 1 4 1 -1 -1 -1 -2 4 3 -3 -7 -0 1 -2 -2 4 -1 9 -7 -24 5 27 -1 -6 -3 -2 0 -2
0 -0 2 1 -0 -2 -0 -1 -0 1 -6 2 -1 -5 -4 7 -5 1 -6 0 -5 0 -2 -2 1 -0 3 -3 -2 0 -5 -7 8 0 7 -5 -43 -10 6 -10 -12 -4 -2 -0 -6
3 -4 0 5 0 -1 -1 -2 -4 -0 -1 0 -4 -9 -19 3 3 3 -1 2 -1 -7 -4 -1 1 -3 -3 3 -5 -1 0 -15 33 7 5 14 -84 26 -8 1 -7 -6 4 5 3
-2 -2 2 3 2 -1 -1 -3 3 -3 -3 -4 -3 -5 -5 -1 1 -2 1 5 -2 1 -4 -3 -3 -1 3 0 -4 -5 -22 -4 -6 -5 0 26 -35 37 11 3 -0 -3 -1 6 11
-7 1 1 2 0 1 1 1 -1 -2 -5 -2 -1 -5 9 -2 -3 -4 2 -4 -4 -1 0 -4 2 3 -5 -2 -16 -6 -1 -3 -8 1 -11 -16 -20 -4 4 12 -6 35 0 7 24
0 1 1 -3 2 -2 5 2 -1 1 -4 5 -6 1 4 -9 -0 3 -8 -5 -1 -2 -6 2 3 -18 -3 3 -4 -4 9 3 -1 18 -3 2 -16 -14 -4 -21 0 26 14 6 25
1 -1 -1 0 -4 -4 2 5 9 -4 -24 -6 8 -17 7 14 2 -4 -4 1 2 -3 -1 -1 -8 -12 1 -2 1 -4 3 -12 -33 7 12 7 -27 -2 -16 -16 4 18 15 41 6
2 -3 4 -1 -2 -4 0 3 0 1 -12 -9 -1 -6 4 4 -3 15 -6 7 1 8 0 -7 0 3 12 13 18 8 1 -15 14 8 -4 3 -32 -19 -30 2 5 6 39 40 15
1 1 -1 4 -11 0 -1 2 10 -4 -15 -5 -14 -10 -10 5 -21 3 -6 7 3 -5 5 5 -1 -1 3 2 16 3 9 5 -4 1 -11 17 -23 -32 3 -16 10 -19 43 58 -3
0 -1 2 1 -5 2 -0 5 5 1 -2 15 12 3 -0 -1 -2 -4 -3 1 -5 1 17 -34 4 3 3 3 -3 -1 2 3 -3 2 3 14 4 -75 -4 -14 5 6 92 1 21
1 -2 1 -4 -1 6 5 3 4 -1 -18 -10 2 3 -1 -3 -0 -0 1 5 4 4 3 -14 10 2 -1 3 1 3 2 -3 -0 -1 5 -2 9 -28 -8 9 3 5 44 18 -9
-2 5 -6 1 -2 7 5 -0 17 -3 1 -13 -13 -4 -1 4 -2 -0 11 4 -10 -1 -5 6 -8 -1 7 5 7 0 0 -4 -2 6 -6 1 5 -31 -0 7 1 14 16 34 3
3 -4 -1 2 9 8 4 17 7 -17 -14 6 2 29 -6 4 -8 1 -11 -7 10 4 0 -1 -10 2 1 -9 9 0 -2 -7 -1 0 -1 -8 -3 -8 15 8 27 21 -5 -8 12
-0 -0 -2 1 7 6 8 15 -31 -2 2 -2 -9 10 -4 26 3 -0 -1 -3 -9 4 -8 -6 -1 0 6 1 8 -1 -9 6 6 -6 7 -7 -5 1 4 77 -5 29 8 1 -9
-0 3 1 6 13 32 14 -23 -19 4 1 15 0 3 -1 -9 26 34 -1 1 -4 28 5 -1 -1 -4 0 -0 2 1 2 -1 2 1 0 -2 5 9 9 28 13 -2 11 2 -9
4 0 -7 -7 43 3 -6 -20 -1 10 1 11 -8 1 -6 -1 4 -3 -9 -2 2 -5 -2 0 2 -2 5 -7 -13 -2 -3 5 0 -4 1 0 6 11 1 -11 -3 -6 -9 3 -5
-1 2 5 6 4 5 -14 3 -14 -3 -1 -3 -0 -1 -1 -0 -6 -3 -2 -0 -3 -1 -4 12 1 -2 -12 7 9 15 -11 15 3 -2 5 7 9 7 3 -8 16 8 -7 5 -2
7 -4 8 4 16 -7 8 -4 5 -2 -8 -6 2 3 7 -1 4 -2 -2 -0 -5 5 11 -6 3 1 2 0 2 -4 6 8 10 9 -2 6 3 -3 -1 7 -1 4 -1 6 -2
8 20 4 5 -8 -1 9 -4 -4 -2 2 4 3 -1 -2 -3 3 -4 -4 3 3 -5 -9 16 5 2 -5 -5 -4 3 -1 5 5 5 -4 -1 7 3 13 8 -0 -1 -2 -5 -1
26 -23 -8 -21 -20 -2 9 -3 -1 -2 4 2 -3 1 -5 -1 1 -2 6 -4 3 -5 8 2 -3 8 6 -2 -11 -2 15 19 17 4 2 0 7 4 -1 0 -1 -2 0 0 -2
16 -15 1 4 11 12 9 3 -3 -3 1 -14 -8 4 -1 -4 1 -3 7 7 -1 -7 3 -3 -6 0 -3 -0 0 -7 -5 1 -1 2 3 11 1 -1 -3 2 1 -1 0 -6 -8
18 5 7 -6 -10 0 -13 -8 -9 18 11 12 2 -0 1 1 2 0 -3 4 -2 -2 -3 -1 4 3 -5 -2 1 -1 -6 -0 9 -2 -3 0 -2 -3 1 2 3 1 2 3 7
Height
3126 3126 3126 3127 3126 3126 3127 3126 3126 3125 3125 3124 3124 3125 3123 3122 3125 3126 3124 3126 3123 3123 3123 3123 3124 3124 3124 3127 3127 3126 3123 3118 3121 3124 3124 3126 3126 3127 3127 3125 3124 3123 3123 3127 3123
3120 3120 3120 3120 3120 3120 3120 3120 3119 3119 3119 3119 3119 3119 3119 3117 3118 3122 3121 3119 3119 3118 3120 3120 3122 3120 3120 3123 3123 3122 3119 3115 3121 3121 3120 3118 3119 3120 3120 3120 3121 3120 3121 3121 3121
3114 3114 3114 3115 3114 3114 3113 3113 3114 3113 3113 3113 3113 3112 3113 3112 3114 3114 3114 3115 3116 3117 3117 3117 3118 3118 3118 3118 3119 3117 3112 3115 3115 3118 3118 3114 3111 3113 3112 3111 3117 3115 3116 3114 3114
3108 3108 3108 3108 3109 3107 3108 3108 3108 3107 3107 3106 3106 3105 3105 3107 3115 3110 3111 3111 3111 3111 3113 3113 3113 3114 3113 3112 3114 3110 3110 3111 3111 3113 3112 3110 3111 3106 3107 3107 3109 3110 3111 3111 3109
3100 3101 3102 3102 3102 3102 3101 3102 3102 3102 3101 3100 3100 3098 3098 3101 3108 3104 3105 3106 3106 3105 3107 3107 3107 3108 3107 3108 3108 3105 3104 3104 3104 3105 3105 3105 3101 3099 3096 3102 3103 3104 3105 3104 3104
3093 3094 3095 3095 3095 3095 3096 3095 3095 3095 3095 3094 3094 3091 3091 3095 3097 3098 3094 3098 3100 3099 3099 3101 3100 3102 3097 3099 3103 3101 3098 3096 3096 3097 3098 3099 3092 3095 3094 3098 3096 3096 3096 3097 3097
3086 3087 3088 3089 3088 3089 3089 3089 3089 3088 3088 3088 3086 3084 3082 3092 3089 3091 3087 3086 3088 3090 3091 3095 3095 3095 3094 3092 3095 3095 3090 3086 3087 3089 3092 3096 3076 3083 3089 3092 3087 3087 3087 3088 3090
3078 3081 3081 3082 3082 3082 3082 3082 3082 3081 3082 3082 3081 3078 3069 3081 3082 3083 3083 3083 3083 3084 3086 3086 3087 3087 3089 3088 3087 3089 3088 3079 3078 3086 3086 3093 3059 3078 3081 3081 3078 3079 3079 3080 3083
3070 3073 3074 3075 3075 3075 3075 3075 3075 3075 3076 3076 3077 3072 3068 3070 3075 3073 3075 3079 3080 3080 3079 3081 3083 3082 3084 3084 3082 3083 3078 3078 3064 3081 3079 3084 3066 3069 3072 3072 3069 3070 3070 3072 3075
3064 3066 3067 3067 3068 3067 3069 3068 3067 3068 3068 3070 3069 3069 3069 3067 3067 3066 3066 3070 3074 3074 3074 3075 3076 3075 3077 3079 3074 3076 3077 3074 3069 3076 3074 3069 3065 3058 3061 3063 3058 3063 3063 3065 3069
3056 3058 3060 3059 3061 3061 3063 3061 3062 3063 3060 3064 3063 3061 3063 3064 3061 3059 3061 3066 3067 3068 3069 3070 3069 3067 3071 3072 3072 3072 3072 3071 3063 3068 3068 3059 3059 3052 3046 3052 3054 3056 3058 3060 3060
3049 3051 3052 3052 3053 3054 3054 3054 3055 3056 3050 3052 3054 3049 3058 3062 3055 3056 3060 3062 3061 3060 3062 3064 3055 3063 3065 3066 3070 3070 3067 3062 3058 3059 3062 3053 3047 3046 3047 3043 3048 3048 3051 3055 3048
3041 3044 3045 3045 3046 3044 3049 3050 3051 3053 3047 3037 3044 3042 3046 3051 3047 3048 3053 3055 3056 3058 3057 3054 3053 3060 3062 3062 3065 3061 3063 3060 3057 3053 3050 3048 3037 3037 3035 3035 3037 3038 3044 3045 3032
3033 3036 3037 3037 3038 3040 3041 3047 3048 3048 3047 3030 3033 3030 3034 3037 3036 3043 3044 3050 3049 3050 3056 3050 3053 3053 3054 3054 3059 3053 3056 3055 3052 3051 3046 3045 3038 3024 3026 3027 3028 3032 3034 3026 3020
3025 3028 3030 3031 3029 3033 3039 3040 3042 3044 3049 3035 3028 3027 3026 3034 3035 3035 3037 3040 3041 3044 3052 3041 3048 3050 3047 3047 3050 3048 3048 3048 3049 3049 3045 3035 3045 3002 3021 3018 3021 3025 3027 3021 3023
3017 3020 3022 3022 3023 3029 3031 3035 3039 3046 3033 3025 3026 3025 3025 3025 3031 3033 3036 3038 3038 3039 3042 3040 3044 3046 3043 3042 3044 3045 3042 3044 3045 3046 3039 3031 3034 3000 3011 3013 3013 3018 3021 3014 3018
3006 3011 3013 3016 3018 3021 3023 3029 3036 3032 3024 3019 3021 3022 3022 3024 3027 3030 3034 3032 3032 3035 3035 3036 3036 3038 3041 3039 3040 3037 3040 3045 3045 3040 3029 3025 3021 3009 3010 3006 3002 3008 3004 3001 3008
2997 3000 3003 3007 3011 3014 3016 3022 3019 3013 3014 3016 3018 3021 3017 3020 3022 3025 3027 3027 3028 3029 3031 3032 3033 3034 3033 3032 3033 3031 3036 3043 3038 3034 3027 3022 3016 3010 3006 2997 2995 2989 2989 2996 3002
2987 2990 2994 2998 3002 3007 3008 3008 3005 3006 3010 3013 3014 3015 3013 3015 3017 3020 3020 3019 3023 3024 3026 3028 3028 3027 3027 3029 3030 3030 3031 3036 3036 3033 3029 3019 3012 3010 3007 2995 2998 2989 2993 2999 3006
2977 2981 2985 2989 2994 2999 3000 2996 2995 2998 3006 3008 3007 3008 3008 3010 3015 3015 3015 3015 3015 3019 3019 3023 3024 3025 3024 3026 3026 3024 3030 3034 3034 3031 3023 3013 3012 3013 3004 3001 2995 2995 2998 3004 3009
2969 2971 2975 2980 2984 2991 2986 2986 2987 2993 2999 3002 3002 3003 3002 3004 3007 3008 3009 3011 3010 3011 3013 3017 3021 3023 3022 3018 3017 3023 3026 3028 3030 3028 3023 3014 3016 3014 3008 3008 3006 3001 3005 3008 3012
2962 2964 2968 2972 2977 2976 2975 2978 2983 2986 2990 2993 2997 2998 2998 2999 3003 3004 3004 3005 3004 3004 3005 3009 3012 3015 3016 3016 3017 3020 3019 3022 3024 3024 3020 3016 3017 3015 3012 3010 3010 3008 3009 3009 3011
2952 2957 2959 2964 2964 2966 2969 2973 2978 2979 2982 2984 2988 2991 2993 2996 2997 2997 2998 2999 3001 3002 3001 3002 3006 3010 3012 3013 3013 3013 3015 3017 3019 3019 3018 3019 3017 3016 3013 3013 3011 3011 3013 3010 3009
2945 2948 2950 2954 2956 2960 2964 2965 2971 2974 2975 2978 2981 2986 2988 2990 2991 2991 2994 2996 2997 2997 3000 3002 3001 3002 3004 3006 3008 3010 3012 3013 3015 3016 3015 3017 3014 3015 3013 3011 3013 3012 3013 3013 3012
2935 2935 2943 2945 2948 2953 2958 2960 2964 2966 2967 2972 2975 2978 2983 2986 2985 2987 2991 2990 2993 2991 2997 2997 2997 3000 3001 3003 3005 3008 3007 3010 3011 3012 3013 3013 3011 3010 3010 3010 3010 3009 3008 3008 3006
2926 2932 2936 2938 2941 2946 2950 2951 2955 2960 2963 2966 2969 2973 2976 2978 2981 2983 2985 2985 2986 2987 2992 2993 2993 2996 2998 3001 3003 3005 3005 3006 3007 3007 3009 3008 3004 3006 3008 3007 3006 3005 3002 3000 2999
2921 2926 2932 2933 2936 2939 2939 2944 2950 2955 2959 2961 2964 2969 2970 2973 2976 2979 2979 2980 2982 2986 2987 2989 2991 2993 2994 2998 3000 3001 3002 3003 3003 3003 3003 3003 3000 3002 3004 3004 3002 3000 2998 2995 2993